Wetbulb
63.22 62.95 62.78 63.11 60.64 60.27 59.15 59.83 63.38 59.89 59.29 63.85 62.59 65.70 65.70 67.98 69.80 68.48 69.69 70.26 69.46 69.23 69.22 69.33 69.80 69.87 70.52 71.53 71.57 71.59 72.01 72.51 72.61 72.94 72.82 74.11 74.73 75.28
61.75 59.67 58.39 56.62 55.78 55.88 57.51 57.51 56.98 61.05 60.64 63.54 64.70 64.55 63.59 64.74 66.72 67.14 68.99 69.57 69.54 69.17 68.70 68.77 68.84 68.65 68.50 68.92 69.50 69.65 70.17 70.66 71.01 71.33 71.32 71.60 72.33 73.47
60.16 58.19 56.08 56.18 54.29 52.22 52.31 52.36 52.05 53.66 59.89 62.03 62.28 63.20 62.71 60.25 60.78 63.18 65.63 67.48 67.41 68.11 68.09 66.70 66.16 66.16 65.69 65.82 66.97 67.57 68.16 68.60 69.34 69.93 69.91 69.99 70.22 71.18
54.86 52.96 53.46 53.70 50.05 49.82 49.45 49.38 50.05 50.82 51.37 49.55 52.73 57.03 61.18 57.51 58.71 59.02 60.40 61.82 63.48 67.16 66.36 65.76 65.49 65.73 65.41 64.95 65.20 65.13 65.16 66.27 66.21 66.26 67.04 67.40 67.94 68.65
51.82 51.07 50.28 48.91 47.47 47.96 48.13 48.52 48.50 49.54 48.01 48.22 48.74 51.74 53.38 54.05 55.25 56.40 57.03 56.97 57.71 63.72 61.52 61.07 61.94 61.41 60.75 59.98 60.50 62.52 61.95 61.79 62.24 62.43 63.28 64.24 65.63 66.48
49.30 49.60 49.81 48.58 48.03 48.20 49.18 48.96 48.40 48.21 47.62 46.51 46.76 47.55 49.20 50.93 51.73 52.49 50.68 53.68 52.49 58.47 59.45 59.99 59.36 59.05 59.11 59.62 59.85 60.60 58.91 59.84 59.51 59.04 59.55 60.33 61.95 63.60
50.13 50.96 50.34 51.66 55.24 52.52 50.22 48.99 48.12 46.98 46.88 46.37 46.16 46.18 46.33 47.64 48.25 49.54 48.24 49.31 50.16 52.48 50.15 52.20 55.02 57.23 56.16 57.37 58.19 58.06 59.56 58.75 58.17 57.85 57.50 57.41 58.19 59.91
50.11 50.96 52.80 58.74 57.39 58.74 58.31 56.74 51.53 46.94 44.80 45.87 45.13 44.25 44.71 46.28 48.21 47.76 46.50 45.41 44.27 48.18 47.54 48.16 50.75 51.37 54.81 56.92 58.30 58.11 58.02 59.21 58.59 58.09 57.48 56.86 57.48 58.02
51.90 52.06 52.50 56.76 56.58 50.71 55.85 55.11 52.90 54.06 53.21 48.02 45.25 44.59 44.94 47.36 47.20 45.69 44.97 44.65 44.40 46.75 47.31 46.12 48.24 48.74 51.14 53.65 58.07 59.00 58.80 59.18 58.71 58.18 57.66 56.84 57.04 56.89
51.90 52.15 52.10 52.57 53.93 51.30 48.74 48.30 47.75 47.38 47.29 48.58 46.97 47.12 48.08 48.74 47.80 46.63 45.68 45.04 45.84 47.33 48.23 44.82 47.54 47.89 49.84 50.90 58.09 58.22 57.76 56.95 56.65 56.30 56.14 55.04 54.16 54.13
48.91 49.48 53.22 51.61 55.30 57.61 49.15 48.15 45.72 45.46 50.23 54.33 55.80 56.77 56.51 56.78 55.11 48.90 46.54 44.50 43.77 44.91 47.12 46.47 47.30 47.74 48.15 49.08 50.66 56.82 56.20 54.69 54.38 54.92 55.43 54.75 52.45 52.92
45.84 47.57 53.81 54.93 55.26 56.42 49.08 44.54 42.66 43.83 44.70 45.49 46.86 48.66 50.60 49.21 54.07 50.09 48.46 45.71 43.82 43.68 47.68 47.46 46.36 47.04 45.10 46.40 48.19 48.18 48.71 52.34 52.75 53.11 53.65 53.64 52.04 53.09
45.68 46.63 48.57 53.96 53.42 52.99 53.05 45.16 45.08 46.81 48.24 46.06 45.92 46.83 47.87 48.12 48.19 48.33 47.71 48.10 46.00 45.64 48.94 49.39 46.85 45.86 45.30 44.96 45.38 47.16 47.48 48.26 49.74 50.76 51.51 51.32 51.28 52.50
45.61 46.25 48.83 51.95 51.30 51.84 51.88 52.07 52.78 53.33 48.74 46.68 46.76 48.35 49.12 49.30 50.21 50.77 50.87 49.17 50.24 49.66 50.35 51.05 47.89 46.50 44.21 42.58 43.10 46.38 47.54 48.31 48.59 49.36 50.45 51.30 51.75 52.83
47.49 48.82 51.48 51.00 50.89 50.51 51.42 51.99 52.79 48.57 47.12 47.35 48.62 49.42 50.29 50.91 51.03 51.09 51.58 51.55 51.78 51.17 52.24 50.36 49.86 48.06 48.26 44.69 44.79 45.06 45.79 47.51 48.92 48.92 49.31 49.98 51.00 52.37
50.22 45.85 48.84 50.69 51.51 50.67 50.11 47.86 46.49 46.32 46.62 46.92 48.79 50.23 50.95 50.68 50.66 51.41 50.61 50.88 50.42 50.55 51.66 52.08 51.13 50.80 49.20 48.77 48.64 47.06 46.50 46.07 47.55 48.23 48.65 48.50 49.44 50.71
45.80 42.81 42.39 42.00 42.69 44.21 43.59 44.47 45.62 46.42 46.94 46.92 46.87 47.24 48.44 48.68 48.66 49.51 48.89 48.51 47.57 48.09 48.64 51.11 51.17 51.42 50.94 50.33 47.76 48.95 48.13 46.66 48.61 48.71 46.83 46.85 48.12 49.14
42.75 41.33 42.39 41.94 42.50 43.03 43.13 44.42 45.79 47.52 44.73 47.04 47.73 47.71 47.31 47.25 47.55 48.11 47.97 47.00 46.30 46.86 47.33 49.06 50.43 47.66 48.04 49.46 52.48 48.72 47.77 47.46 46.88 47.04 46.70 45.87 46.31 48.68
40.67 41.53 41.78 43.29 43.51 43.31 43.90 44.61 43.88 44.15 44.83 47.38 47.17 47.69 47.59 47.18 45.44 42.52 41.97 40.86 39.86 41.33 44.79 48.19 48.91 48.53 46.04 45.01 49.63 53.03 48.36 46.27 45.26 44.58 46.18 46.34 46.38 47.61
41.06 42.41 43.25 43.28 43.88 44.38 44.94 43.74 43.36 43.71 46.67 47.30 47.81 47.44 46.09 42.41 40.84 38.98 40.31 39.51 38.01 38.56 40.01 42.80 44.46 47.92 46.79 47.04 47.29 47.82 50.25 48.82 45.90 44.51 44.11 44.98 46.39 50.58
43.66 44.07 44.16 44.32 44.74 44.75 43.78 43.15 43.10 45.75 47.63 47.78 46.54 45.09 42.44 40.47 39.34 40.39 40.52 40.29 39.75 38.60 38.06 39.37 42.14 46.14 46.42 50.16 47.30 47.33 47.59 49.74 49.39 46.87 44.19 43.39 42.81 43.20
46.53 45.80 45.70 45.41 44.74 43.70 42.94 42.90 44.74 46.72 46.99 45.76 45.44 41.75 39.31 41.82 41.09 41.01 40.55 39.21 38.67 38.85 38.85 40.12 41.53 42.80 45.74 47.59 46.83 47.78 47.67 47.86 49.70 50.98 50.05 48.63 43.54 41.21
45.30 44.65 45.46 45.25 43.86 43.27 44.98 44.89 44.76 46.63 45.73 44.99 43.24 41.26 40.28 40.41 41.52 41.90 41.19 40.83 40.69 40.16 40.34 40.54 42.37 44.52 45.92 45.98 46.65 47.40 47.06 46.39 46.40 45.99 47.02 49.89 51.67 51.63
MSLP
1015.30 1015.32 1015.56 1015.72 1015.61 1015.55 1015.58 1015.61 1015.39 1015.25 1014.84 1014.11 1013.89 1013.54 1013.06 1012.53 1012.20 1012.08 1012.00 1011.98 1012.15 1012.51 1012.89 1012.81 1013.21 1013.48 1013.46 1013.55 1013.87 1014.10 1014.45 1014.70 1014.97 1015.40 1015.84 1016.09 1016.44 1016.89
1015.68 1015.79 1015.95 1016.11 1015.89 1015.91 1015.87 1015.86 1015.84 1015.67 1015.43 1015.04 1014.50 1014.33 1013.90 1013.41 1012.87 1012.43 1012.15 1012.10 1012.35 1012.60 1012.79 1012.89 1013.21 1013.53 1013.68 1013.70 1013.63 1013.82 1014.23 1014.39 1014.55 1014.79 1015.27 1015.62 1015.90 1016.18
1016.16 1016.25 1016.49 1016.48 1016.42 1016.42 1016.24 1016.22 1016.24 1016.05 1015.78 1015.20 1015.01 1014.67 1014.22 1013.97 1013.60 1013.22 1012.99 1012.72 1012.58 1012.53 1012.59 1013.14 1013.23 1013.49 1013.77 1013.77 1013.79 1013.87 1014.30 1014.36 1014.51 1014.58 1014.94 1015.24 1015.69 1016.03
1016.59 1016.71 1016.72 1016.73 1016.85 1016.87 1016.77 1016.92 1016.95 1016.77 1016.62 1016.31 1015.67 1015.27 1014.99 1014.65 1014.35 1014.06 1013.70 1013.38 1013.21 1013.04 1013.19 1013.36 1013.57 1013.58 1013.88 1014.20 1013.74 1014.27 1014.04 1014.22 1014.57 1014.83 1014.83 1015.09 1015.34 1015.68
1016.75 1016.91 1017.02 1016.83 1017.25 1017.13 1017.01 1017.11 1017.16 1017.14 1017.15 1016.99 1016.76 1016.13 1015.63 1015.32 1014.94 1014.51 1014.45 1014.03 1013.75 1013.52 1013.88 1013.94 1013.93 1014.13 1014.11 1014.29 1014.13 1014.30 1013.90 1014.11 1014.06 1014.61 1014.74 1014.78 1014.96 1015.11
1016.72 1016.81 1016.88 1016.83 1017.24 1017.29 1017.14 1017.15 1017.07 1017.15 1017.28 1017.30 1017.27 1017.02 1016.69 1016.08 1015.86 1015.70 1015.03 1014.79 1014.39 1014.18 1014.06 1014.18 1014.34 1014.28 1014.32 1014.05 1013.53 1013.79 1013.74 1013.89 1013.94 1014.12 1014.34 1014.25 1014.32 1014.51
1017.09 1017.07 1016.99 1016.88 1016.97 1016.90 1017.05 1017.21 1017.16 1017.26 1017.44 1017.58 1017.60 1017.55 1017.33 1016.95 1016.67 1016.36 1016.13 1015.72 1015.08 1014.95 1014.65 1014.41 1014.10 1013.97 1013.90 1013.64 1013.69 1013.70 1013.70 1013.90 1013.96 1013.94 1013.98 1013.81 1013.99 1014.16
1017.42 1017.21 1017.08 1016.81 1016.75 1016.79 1016.80 1016.82 1016.81 1017.11 1017.35 1017.65 1017.75 1017.65 1017.43 1017.09 1016.82 1016.65 1016.48 1016.44 1016.25 1015.22 1015.10 1014.87 1014.47 1014.32 1013.50 1013.32 1013.13 1013.17 1013.38 1013.81 1013.58 1013.70 1013.87 1013.63 1013.36 1013.41
1017.16 1017.21 1017.27 1017.20 1017.26 1017.18 1016.97 1016.78 1016.74 1016.86 1016.91 1017.11 1017.35 1017.40 1017.20 1016.84 1016.76 1016.68 1016.55 1016.51 1016.41 1015.54 1015.45 1015.33 1014.69 1014.44 1013.71 1013.47 1013.13 1012.82 1013.06 1013.54 1013.37 1013.28 1013.23 1012.81 1012.79 1012.80
1016.68 1016.77 1016.77 1016.77 1016.84 1016.94 1017.03 1017.25 1017.12 1016.67 1016.46 1016.41 1016.60 1016.54 1016.39 1016.34 1016.58 1016.41 1016.20 1016.19 1016.04 1015.47 1015.45 1015.62 1014.75 1014.46 1013.87 1013.52 1013.24 1013.00 1013.19 1013.44 1013.26 1013.12 1013.03 1012.70 1012.31 1012.17
1016.93 1016.78 1016.74 1016.56 1016.44 1016.85 1017.13 1017.29 1017.09 1016.61 1016.08 1015.82 1015.67 1015.42 1015.33 1015.28 1015.44 1015.77 1016.08 1016.27 1016.02 1015.60 1015.06 1015.12 1014.78 1014.52 1014.09 1013.59 1013.20 1013.10 1013.09 1013.10 1013.01 1012.90 1012.56 1012.27 1012.07 1012.06
1016.77 1016.66 1016.62 1016.61 1016.63 1016.84 1016.98 1017.08 1016.99 1016.49 1016.21 1015.72 1015.28 1014.98 1014.93 1014.87 1014.57 1014.95 1015.12 1015.60 1015.64 1015.42 1014.39 1014.76 1014.62 1014.58 1014.49 1013.83 1013.52 1013.31 1013.18 1012.99 1012.82 1012.62 1012.54 1012.30 1012.08 1011.98
1017.16 1016.98 1016.63 1016.52 1016.61 1016.73 1016.65 1016.62 1016.31 1015.91 1015.76 1015.77 1015.46 1014.92 1014.59 1014.29 1014.02 1013.85 1014.02 1014.33 1014.42 1014.35 1013.51 1013.78 1014.06 1014.29 1014.40 1014.18 1013.57 1013.01 1012.88 1012.65 1012.50 1012.33 1012.03 1011.81 1011.72 1011.66
1017.16 1016.93 1016.72 1016.59 1016.44 1016.42 1016.36 1016.13 1015.87 1015.79 1015.65 1015.60 1015.32 1014.77 1014.20 1013.64 1013.21 1012.92 1012.59 1012.76 1012.62 1012.50 1012.07 1012.64 1013.11 1013.41 1013.70 1013.83 1013.67 1012.88 1012.55 1012.35 1012.34 1012.17 1011.85 1011.62 1011.53 1011.39
1016.66 1016.54 1016.32 1016.11 1016.03 1015.85 1015.68 1015.46 1015.26 1015.22 1015.29 1015.19 1014.50 1013.77 1013.25 1012.87 1012.67 1012.41 1011.93 1011.70 1011.41 1011.20 1011.14 1011.39 1011.59 1011.96 1012.38 1012.63 1012.73 1012.46 1012.47 1012.01 1011.82 1011.84 1011.74 1011.65 1011.52 1011.28
1016.27 1016.27 1016.02 1016.03 1016.01 1015.73 1015.39 1015.04 1014.86 1014.73 1014.63 1014.41 1014.07 1013.32 1012.96 1012.65 1012.33 1012.04 1011.73 1011.34 1011.09 1010.48 1010.09 1010.13 1010.35 1010.71 1011.08 1011.21 1011.35 1011.55 1011.64 1011.91 1011.43 1011.46 1011.42 1011.27 1011.17 1011.08
1016.14 1016.08 1015.94 1015.92 1015.67 1015.25 1015.03 1014.64 1014.27 1014.09 1013.96 1013.79 1013.57 1013.20 1012.74 1012.37 1012.07 1011.91 1011.72 1011.43 1011.07 1010.31 1009.68 1009.39 1009.33 1009.43 1009.74 1009.85 1010.30 1010.29 1010.64 1010.94 1010.84 1010.83 1011.14 1011.02 1010.63 1010.54
1016.17 1016.17 1015.87 1015.66 1015.50 1015.09 1014.76 1014.40 1014.12 1013.76 1013.68 1013.41 1013.16 1012.92 1012.61 1012.40 1012.33 1012.29 1012.25 1011.97 1011.37 1010.63 1009.94 1009.45 1009.16 1009.24 1009.31 1009.09 1009.11 1009.21 1009.71 1009.83 1009.86 1010.09 1010.38 1010.66 1010.27 1009.73
1016.22 1015.74 1015.57 1015.21 1014.83 1014.55 1014.43 1014.38 1014.09 1013.67 1013.40 1013.18 1013.01 1012.92 1012.82 1012.77 1012.83 1012.67 1012.46 1012.28 1011.89 1011.17 1010.34 1009.47 1008.91 1008.67 1008.46 1008.17 1007.88 1008.09 1008.48 1008.80 1009.14 1009.50 1009.70 1009.94 1009.70 1009.05
1015.62 1015.17 1014.97 1014.60 1014.30 1014.22 1014.11 1014.02 1013.84 1013.59 1013.28 1013.10 1013.02 1012.96 1012.98 1013.06 1012.90 1012.83 1012.55 1012.24 1011.86 1011.20 1010.41 1009.73 1009.21 1008.34 1008.15 1007.61 1007.45 1007.48 1007.67 1007.96 1008.48 1008.66 1009.00 1009.15 1008.91 1008.50
1014.53 1014.44 1014.22 1014.06 1013.98 1013.80 1013.74 1013.74 1013.73 1013.51 1013.28 1013.14 1013.07 1013.06 1013.26 1013.24 1013.05 1012.80 1012.39 1011.93 1011.45 1010.82 1010.05 1009.38 1008.95 1008.60 1008.27 1007.59 1007.37 1007.19 1007.01 1007.02 1007.34 1007.72 1008.26 1008.64 1008.70 1008.33
1014.09 1014.03 1013.74 1013.48 1013.45 1013.49 1013.49 1013.55 1013.58 1013.40 1013.18 1013.17 1013.09 1013.30 1013.30 1013.12 1012.85 1012.47 1012.03 1011.59 1010.95 1010.38 1009.72 1009.04 1008.63 1008.38 1007.82 1007.07 1006.44 1006.45 1006.53 1006.71 1006.90 1007.16 1007.25 1007.40 1007.74 1007.63
1013.71 1013.54 1013.22 1013.09 1013.15 1013.24 1013.35 1013.40 1013.43 1013.24 1013.18 1013.08 1013.06 1013.09 1013.08 1012.90 1012.56 1012.17 1011.69 1011.14 1010.55 1009.91 1009.29 1008.60 1008.03 1007.76 1007.17 1006.87 1006.66 1006.49 1006.51 1006.62 1006.73 1006.90 1006.77 1006.65 1006.60 1006.39
Wind_Speed
5 6 4 4 4 4 3 2 1 2 2 4 3 5 6 4 7 5 4 6 12 7 5 6 3 4 7 13 15 15 14 14 16 17 17 17 18 18
4 6 5 3 4 4 4 3 3 1 2 2 3 4 6 6 10 7 6 5 2 6 7 4 3 2 4 3 3 4 7 8 8 11 13 13 14 15
5 6 5 4 4 4 4 4 4 3 2 2 2 4 6 7 6 6 7 6 4 1 5 8 6 6 7 9 5 6 8 6 5 3 6 7 9 8
5 5 5 3 6 5 4 5 4 4 3 3 3 4 5 7 5 6 7 7 5 10 4 6 6 6 6 9 9 7 10 6 7 7 4 6 8 9
5 5 4 5 4 2 3 4 3 3 4 3 3 2 2 4 3 4 5 6 6 10 12 14 13 10 12 12 15 7 7 6 5 7 8 9 10 11
5 5 4 5 5 3 4 4 3 4 3 3 2 3 2 3 2 2 4 3 4 5 9 6 6 9 9 6 9 15 12 7 5 5 9 10 11 11
3 3 3 5 7 4 3 2 3 3 3 3 3 3 3 3 3 3 2 3 3 3 3 3 3 2 1 4 3 7 11 10 10 8 11 7 10 12
4 4 3 6 5 5 6 6 5 3 1 0 1 1 3 2 2 2 2 3 4 2 4 4 3 3 3 3 5 6 8 11 6 11 10 11 10 11
4 4 4 3 4 2 2 2 1 1 2 4 3 3 2 4 2 2 2 3 4 4 2 3 2 4 3 3 8 4 7 7 9 8 9 9 10 11
1 5 6 6 7 7 3 4 5 6 5 2 5 6 6 5 4 4 4 3 3 4 4 3 2 3 3 3 3 6 6 2 3 4 6 7 6 8
3 4 5 6 8 9 3 4 6 7 5 9 9 9 10 12 7 1 3 2 3 3 3 3 3 3 2 3 4 3 0 3 6 6 8 9 9 6
4 4 7 6 5 8 5 4 6 7 6 7 7 7 7 8 12 6 4 4 2 3 4 4 2 2 4 3 2 3 3 6 7 6 8 8 7 3
2 4 4 5 6 7 8 5 7 6 11 6 6 6 6 6 5 5 7 6 5 6 5 4 4 2 3 3 3 3 2 4 3 4 8 9 9 4
3 3 4 8 8 10 8 12 14 13 5 5 5 7 7 6 6 6 7 7 8 11 7 7 4 5 4 2 4 3 3 4 3 4 4 5 7 7
3 7 9 8 10 8 12 15 14 4 4 5 7 7 6 7 7 6 7 9 10 9 9 9 8 6 6 5 4 4 2 3 3 4 3 4 3 2
5 5 6 8 10 11 10 7 4 5 5 5 5 5 5 4 5 6 8 8 9 10 9 10 11 10 8 9 8 6 5 3 2 3 3 2 3 4
2 2 3 3 5 6 4 5 4 4 3 2 3 5 6 6 7 6 7 8 9 10 10 7 8 11 10 10 6 8 7 5 6 5 3 4 4 5
2 3 5 4 6 5 5 5 4 3 3 3 5 6 7 5 5 6 6 7 9 9 10 9 7 2 2 5 15 8 5 6 4 5 4 3 4 4
3 4 5 6 6 5 4 3 3 3 4 5 6 5 4 4 5 4 5 5 8 10 10 10 8 8 10 10 7 18 9 5 3 3 4 4 4 6
4 5 6 5 5 4 3 2 3 4 5 5 4 4 2 2 4 4 6 7 7 8 9 8 8 8 8 4 3 3 16 7 5 4 3 2 5 12
3 4 4 5 4 3 2 2 3 5 5 3 3 1 3 3 4 6 7 12 12 8 9 8 7 16 9 5 5 6 4 15 8 6 4 3 3 3
4 4 5 3 2 2 2 2 4 4 4 3 2 2 3 4 5 7 7 7 8 7 8 7 8 6 5 5 3 6 4 2 9 10 11 11 5 4
4 4 4 3 2 1 2 3 3 3 3 3 1 3 4 5 5 6 7 7 7 7 7 7 6 5 6 5 6 3 3 3 3 3 4 11 17 21
Wind_Direction
58 58 55 38 36 35 42 21 324 323 316 335 335 9 350 4 17 359 354 214 185 183 228 225 280 298 248 240 227 221 231 230 227 227 225 219 223 227
70 75 68 49 57 39 35 39 26 358 309 354 1 343 353 356 4 9 23 45 123 223 256 205 164 59 2 300 196 211 235 241 231 217 217 219 220 219
72 83 72 58 57 40 35 35 35 24 7 12 22 335 16 5 355 359 13 25 20 29 107 79 59 68 46 4 343 298 255 265 273 232 217 215 226 228
100 87 90 79 63 44 51 52 43 15 43 9 329 342 20 358 349 18 19 19 9 44 53 80 62 34 31 350 318 278 277 228 234 249 238 237 231 233
126 116 137 105 84 74 76 64 46 30 31 49 331 324 325 6 341 9 8 12 359 66 60 46 42 55 46 24 343 308 242 251 238 259 258 245 234 233
135 132 142 119 126 102 72 66 64 49 30 38 0 332 334 320 344 346 353 353 348 30 55 82 60 20 24 41 2 345 351 324 289 249 250 253 242 235
163 177 161 156 156 153 119 84 82 62 25 15 349 344 331 345 353 321 316 321 312 16 340 349 356 357 308 344 302 328 314 317 326 310 300 276 245 246
206 238 224 192 180 171 166 164 154 126 29 353 295 295 280 268 312 326 340 13 336 347 12 317 349 307 303 267 263 284 295 303 282 302 278 254 255 241
221 231 260 253 225 259 255 210 293 349 167 181 209 230 257 227 228 286 259 215 234 279 65 298 319 313 308 317 317 238 225 274 308 298 278 280 249 224
152 230 224 234 224 209 239 322 321 314 307 247 207 237 230 257 217 216 231 252 290 273 165 228 272 257 286 286 254 66 105 42 9 326 315 332 305 251
354 353 311 263 251 202 201 259 297 301 300 298 289 280 252 258 262 177 263 182 264 262 226 180 241 261 271 269 264 252 65 351 330 322 330 336 344 322
339 343 340 301 256 207 207 241 279 265 286 310 312 306 289 279 288 213 182 221 214 301 246 176 200 186 320 274 296 269 262 260 295 282 294 291 310 321
328 308 302 286 250 242 229 225 240 278 294 280 284 289 289 271 261 233 203 194 195 225 222 174 190 192 208 269 286 276 252 293 267 281 286 281 281 230
245 268 272 271 265 267 277 267 265 274 270 273 276 278 273 273 271 261 248 215 218 230 249 183 207 178 187 231 248 280 260 257 241 261 269 273 293 284
229 242 252 258 269 275 269 277 289 258 245 247 245 254 255 261 280 280 271 261 258 241 237 202 213 204 197 205 215 224 238 267 222 243 264 257 236 255
272 296 283 278 275 271 287 281 267 247 235 247 268 273 277 272 274 272 273 276 273 268 246 230 222 212 220 222 216 231 202 239 213 220 233 256 259 247
300 294 312 312 304 294 264 252 276 273 255 254 268 276 284 287 288 305 307 306 297 290 281 260 224 218 225 228 218 226 221 215 225 240 186 258 255 239
350 290 293 278 271 279 283 294 292 290 285 285 290 285 290 304 312 320 320 314 304 292 284 279 275 188 220 247 227 239 213 236 213 215 201 221 263 248
228 263 260 266 270 269 272 257 258 288 296 294 296 313 321 326 349 316 309 320 309 298 300 298 267 254 240 238 243 207 224 222 207 206 188 197 232 262
234 259 269 267 271 272 261 252 304 313 306 304 313 309 358 318 305 306 295 290 290 290 290 283 294 265 253 265 244 235 204 222 190 201 194 211 245 270
265 266 256 268 272 248 260 290 297 298 298 302 291 330 320 292 297 286 285 292 289 283 282 281 271 305 301 273 249 235 219 221 203 186 175 186 231 256
268 268 278 267 258 251 260 314 299 295 304 300 306 346 299 288 284 289 293 292 291 284 282 282 285 283 283 285 257 226 208 198 203 218 199 196 177 234
285 292 303 311 285 240 297 306 295 294 287 292 301 299 302 293 288 288 288 288 287 287 281 288 269 256 251 243 258 242 183 182 182 203 242 238 242 245